This is the latest recevied weather packets stored in our database for station/object K3SV. If no packets are shown the sender has not sent any weather packets the latest 10 day(s).
| Time | Temp. | Humidity | Pressure | Rain* | Wind** | Luminosity | Snow |
|---|---|---|---|---|---|---|---|
| 1777818178 | 20.56° C | 76% | 1018.3 hPa | 0 mm | - | 252 W/m² | - |
| 1777817874 | 20.56° C | 77% | 1018.1 hPa | 0 mm | - | 302 W/m² | - |
| 1777817572 | 20° C | 78% | 1018 hPa | 0 mm | - | 294 W/m² | - |
| 1777817269 | 20.56° C | 80% | 1018.1 hPa | 0 mm | - | 391 W/m² | - |
| 1777816966 | 20° C | 80% | 1018 hPa | 0 mm | - | 450 W/m² | - |
| 1777816662 | 20° C | 82% | 1017.7 hPa | 0 mm | - | 154 W/m² | - |
| 1777816359 | 19.44° C | 84% | 1017.6 hPa | 0 mm | - | 180 W/m² | - |
| 1777816057 | 19.44° C | 84% | 1017.5 hPa | 0 mm | - | 207 W/m² | - |
| 1777815754 | 18.89° C | 87% | 1017.6 hPa | 0 mm | - | 381 W/m² | - |
| 1777815452 | 18.89° C | 88% | 1017.7 hPa | 0 mm | - | 160 W/m² | - |
| 1777815149 | 18.89° C | 88% | 1017.7 hPa | 0 mm | - | 165 W/m² | - |
| 1777814845 | 18.89° C | 88% | 1017.7 hPa | 0 mm | - | 174 W/m² | - |
| 1777814541 | 18.89° C | 88% | 1017.7 hPa | 0 mm | - | 258 W/m² | - |
| 1777814239 | 18.89° C | 87% | 1017.8 hPa | 0 mm | - | 321 W/m² | - |
| 1777813936 | 18.33° C | 90% | 1017.7 hPa | 0 mm | - | 317 W/m² | - |
| 1777813633 | 18.33° C | 90% | 1017.5 hPa | 0 mm | - | 127 W/m² | - |
| 1777813330 | 17.78° C | 91% | 1017.5 hPa | 0 mm | - | 192 W/m² | - |
| 1777813028 | 17.78° C | 91% | 1017.4 hPa | 0 mm | - | 171 W/m² | - |
| 1777812726 | 17.78° C | 92% | 1017.5 hPa | 0 mm | - | 132 W/m² | - |
| 1777812422 | 17.78° C | 92% | 1017.5 hPa | 0 mm | - | 132 W/m² | - |
| 1777812120 | 17.78° C | 92% | 1017.4 hPa | 0 mm | - | 91 W/m² | - |
| 1777811818 | 17.78° C | 92% | 1017.3 hPa | 0 mm | - | 95 W/m² | - |
| 1777811515 | 17.22° C | 93% | 1017 hPa | 0 mm | - | 100 W/m² | - |
| 1777811211 | 17.22° C | 94% | 1017.1 hPa | 0 mm | - | 64 W/m² | - |
| 1777810909 | 17.22° C | 94% | 1017 hPa | 0 mm | - | 64 W/m² | - |
* Rain latest hour (hover to see other rain measurements)
** Current wind speed in m/s (hover to see current wind gust speed)